Time,TemperatureF,DewpointF,PressureIn,WindDirection,WindDirectionDegrees,WindSpeedMPH,WindSpeedGustMPH,Humidity,HourlyPrecipIn,Conditions,Clouds,dailyrainin,SoftwareType,DateUTC
2013-01-12 00:01:00,34.9,31.9,29.24,SSE,157,0.0,0.0,89,0.00,,,0.00,WUHU21623XXSP,2013-01-12 06:01:00,
2013-01-12 00:06:00,34.9,31.9,29.24,SSE,157,0.6,3.1,89,0.00,,,0.00,WUHU21623XXSP,2013-01-12 06:06:00,
2013-01-12 00:11:00,34.9,31.9,29.23,SE,135,0.0,3.1,89,0.00,,,0.00,WUHU21623XXSP,2013-01-12 06:11:00,
2013-01-12 00:16:00,34.7,31.7,29.23,SSE,157,0.0,0.0,89,0.00,,,0.00,WUHU21623XXSP,2013-01-12 06:16:00,
2013-01-12 00:21:00,34.7,31.7,29.23,SSE,157,0.0,0.7,89,0.00,,,0.00,WUHU21623XXSP,2013-01-12 06:21:00,
2013-01-12 00:26:00,34.7,31.7,29.23,SSE,157,0.1,1.1,89,0.00,,,0.00,WUHU21623XXSP,2013-01-12 06:26:00,
2013-01-12 00:31:00,34.9,31.9,29.22,SSE,157,0.1,5.1,89,0.00,,,0.00,WUHU21623XXSP,2013-01-12 06:31:00,
2013-01-12 00:36:00,34.9,31.9,29.22,SSE,157,1.4,5.1,89,0.00,,,0.00,WUHU21623XXSP,2013-01-12 06:36:00,
2013-01-12 00:41:00,34.9,31.9,29.22,SE,135,2.7,4.9,89,0.00,,,0.00,WUHU21623XXSP,2013-01-12 06:41:00,
2013-01-12 00:46:00,35.1,32.1,29.22,SSE,163,1.4,4.9,89,0.00,,,0.00,WUHU21623XXSP,2013-01-12 06:46:00,
2013-01-12 00:51:00,35.1,32.1,29.22,SSE,157,0.6,3.1,89,0.00,,,0.00,WUHU21623XXSP,2013-01-12 06:51:00,
2013-01-12 00:56:00,35.2,32.3,29.22,SSE,157,0.3,3.4,89,0.00,,,0.00,WUHU21623XXSP,2013-01-12 06:56:00,
2013-01-12 01:01:00,35.1,32.1,29.22,SSE,157,0.0,3.4,89,0.00,,,0.00,WUHU21623XXSP,2013-01-12 07:01:00,
2013-01-12 01:06:00,35.1,32.1,29.22,SSE,157,0.0,2.0,89,0.00,,,0.00,WUHU21623XXSP,2013-01-12 07:06:00,
2013-01-12 01:11:00,35.2,32.3,29.21,SSW,202,2.0,2.5,89,0.00,,,0.00,WUHU21623XXSP,2013-01-12 07:11:00,
2013-01-12 01:16:00,35.2,32.3,29.22,South,180,0.0,2.5,89,0.00,,,0.00,WUHU21623XXSP,2013-01-12 07:16:00,
2013-01-12 01:21:00,35.2,32.3,29.21,South,180,0.0,3.1,89,0.00,,,0.00,WUHU21623XXSP,2013-01-12 07:21:00,
2013-01-12 01:26:00,35.2,32.3,29.21,SSE,157,0.0,3.1,89,0.00,,,0.00,WUHU21623XXSP,2013-01-12 07:26:00,
2013-01-12 01:31:00,35.2,32.3,29.21,SSE,157,0.1,0.7,89,0.00,,,0.00,WUHU21623XXSP,2013-01-12 07:31:00,
2013-01-12 01:36:00,35.2,32.3,29.21,SSE,157,0.0,1.6,89,0.00,,,0.00,WUHU21623XXSP,2013-01-12 07:36:00,
2013-01-12 01:41:00,35.2,32.3,29.21,SSE,157,0.0,1.6,89,0.00,,,0.00,WUHU21623XXSP,2013-01-12 07:41:00,
2013-01-12 01:46:00,35.4,32.4,29.20,SSE,157,0.0,2.5,89,0.00,,,0.00,WUHU21623XXSP,2013-01-12 07:46:00,
2013-01-12 01:51:00,35.4,32.4,29.20,South,180,4.0,4.0,89,0.00,,,0.00,WUHU21623XXSP,2013-01-12 07:51:00,
2013-01-12 01:56:00,35.4,32.4,29.20,SSE,157,0.9,4.0,89,0.00,,,0.00,WUHU21623XXSP,2013-01-12 07:56:00,
2013-01-12 02:01:00,35.4,32.4,29.20,SSE,157,0.0,2.7,89,0.00,,,0.00,WUHU21623XXSP,2013-01-12 08:01:00,
2013-01-12 02:06:00,35.6,32.6,29.20,South,180,1.0,4.0,89,0.00,,,0.00,WUHU21623XXSP,2013-01-12 08:06:00,
2013-01-12 02:11:00,35.8,32.8,29.20,SE,135,0.4,4.0,89,0.00,,,0.00,WUHU21623XXSP,2013-01-12 08:11:00,
2013-01-12 02:16:00,35.8,32.8,29.20,SE,142,1.4,4.5,89,0.00,,,0.00,WUHU21623XXSP,2013-01-12 08:16:00,
2013-01-12 02:21:00,35.8,32.8,29.20,South,180,1.8,4.5,89,0.00,,,0.00,WUHU21623XXSP,2013-01-12 08:21:00,
2013-01-12 02:26:00,35.8,32.8,29.20,South,180,1.3,3.6,89,0.00,,,0.00,WUHU21623XXSP,2013-01-12 08:26:00,
2013-01-12 02:31:00,35.8,32.8,29.21,SSE,157,1.0,2.9,89,0.00,,,0.00,WUHU21623XXSP,2013-01-12 08:31:00,
2013-01-12 02:36:00,36.0,33.0,29.20,SSE,157,0.2,2.9,89,0.00,,,0.00,WUHU21623XXSP,2013-01-12 08:36:00,
2013-01-12 02:41:00,36.0,33.0,29.20,SE,135,2.7,2.7,89,0.00,,,0.00,WUHU21623XXSP,2013-01-12 08:41:00,
2013-01-12 02:46:00,36.0,33.0,29.19,SSE,166,1.7,3.6,89,0.00,,,0.00,WUHU21623XXSP,2013-01-12 08:46:00,
2013-01-12 02:51:00,36.0,33.0,29.19,SSW,202,0.5,3.6,89,0.00,,,0.00,WUHU21623XXSP,2013-01-12 08:51:00,
2013-01-12 02:56:00,36.0,33.0,29.19,South,180,0.3,3.4,89,0.00,,,0.00,WUHU21623XXSP,2013-01-12 08:56:00,
2013-01-12 03:01:00,36.0,33.0,29.19,SSE,157,0.4,3.4,89,0.00,,,0.00,WUHU21623XXSP,2013-01-12 09:01:00,
2013-01-12 03:06:00,36.1,33.2,29.18,SSE,157,1.1,2.7,89,0.00,,,0.00,WUHU21623XXSP,2013-01-12 09:06:00,
2013-01-12 03:11:00,36.0,33.0,29.18,South,180,0.4,2.7,89,0.00,,,0.00,WUHU21623XXSP,2013-01-12 09:11:00,
2013-01-12 03:16:00,36.1,33.2,29.18,South,185,2.2,4.7,89,0.00,,,0.00,WUHU21623XXSP,2013-01-12 09:16:00,
2013-01-12 03:21:00,36.1,33.2,29.18,South,186,0.8,4.7,89,0.00,,,0.00,WUHU21623XXSP,2013-01-12 09:21:00,
2013-01-12 03:26:00,36.1,33.2,29.18,SSW,202,1.1,3.6,89,0.00,,,0.00,WUHU21623XXSP,2013-01-12 09:26:00,
2013-01-12 03:31:00,36.1,33.2,29.18,South,177,1.0,7.6,89,0.00,,,0.00,WUHU21623XXSP,2013-01-12 09:31:00,
2013-01-12 03:36:00,36.0,33.0,29.17,SW,225,4.0,7.6,89,0.00,,,0.00,WUHU21623XXSP,2013-01-12 09:36:00,
2013-01-12 03:41:00,36.0,33.0,29.17,SSW,202,4.0,5.1,89,0.00,,,0.00,WUHU21623XXSP,2013-01-12 09:41:00,
2013-01-12 03:46:00,36.1,33.2,29.17,SSW,202,2.9,5.1,89,0.00,,,0.00,WUHU21623XXSP,2013-01-12 09:46:00,
2013-01-12 03:51:00,36.1,33.2,29.17,SSW,192,2.4,5.1,89,0.00,,,0.00,WUHU21623XXSP,2013-01-12 09:51:00,
2013-01-12 03:56:00,36.0,33.0,29.17,SSW,201,1.9,5.6,89,0.00,,,0.00,WUHU21623XXSP,2013-01-12 09:56:00,
2013-01-12 04:01:00,35.8,32.8,29.18,SSW,202,2.9,5.6,89,0.00,,,0.00,WUHU21623XXSP,2013-01-12 10:01:00,
2013-01-12 04:06:00,35.8,32.8,29.18,South,180,1.5,4.5,89,0.00,,,0.00,WUHU21623XXSP,2013-01-12 10:06:00,
2013-01-12 04:11:00,35.8,32.8,29.18,SW,219,3.6,8.5,89,0.00,,,0.00,WUHU21623XXSP,2013-01-12 10:11:00,
2013-01-12 04:16:00,35.4,32.4,29.18,SW,220,2.1,8.5,89,0.00,,,0.00,WUHU21623XXSP,2013-01-12 10:16:00,
2013-01-12 04:21:00,35.4,32.4,29.18,SW,217,1.2,8.5,89,0.00,,,0.00,WUHU21623XXSP,2013-01-12 10:21:00,
2013-01-12 04:26:00,35.4,32.4,29.18,West,270,0.4,8.5,89,0.00,,,0.00,WUHU21623XXSP,2013-01-12 10:26:00,
2013-01-12 04:31:00,35.2,32.3,29.18,SW,219,1.2,6.7,89,0.00,,,0.00,WUHU21623XXSP,2013-01-12 10:31:00,
2013-01-12 04:36:00,35.2,32.3,29.18,SW,226,4.0,6.7,89,0.00,,,0.00,WUHU21623XXSP,2013-01-12 10:36:00,
2013-01-12 04:41:00,35.2,32.3,29.18,SW,224,0.7,6.3,89,0.00,,,0.00,WUHU21623XXSP,2013-01-12 10:41:00,
2013-01-12 04:46:00,34.9,31.9,29.18,South,176,0.5,4.3,89,0.00,,,0.00,WUHU21623XXSP,2013-01-12 10:46:00,
2013-01-12 04:51:00,34.9,31.9,29.18,WSW,247,1.2,5.1,89,0.00,,,0.00,WUHU21623XXSP,2013-01-12 10:51:00,
2013-01-12 04:56:00,34.9,31.9,29.18,WSW,247,0.9,5.1,89,0.00,,,0.00,WUHU21623XXSP,2013-01-12 10:56:00,
2013-01-12 05:01:00,34.9,31.9,29.18,South,180,1.6,4.3,89,0.00,,,0.00,WUHU21623XXSP,2013-01-12 11:01:00,
2013-01-12 05:06:00,34.5,31.5,29.18,SW,236,2.6,7.6,89,0.00,,,0.00,WUHU21623XXSP,2013-01-12 11:06:00,
2013-01-12 05:11:00,34.3,31.4,29.18,WSW,247,3.8,7.6,89,0.00,,,0.00,WUHU21623XXSP,2013-01-12 11:11:00,
2013-01-12 05:16:00,34.3,31.4,29.19,West,275,3.6,8.9,89,0.00,,,0.00,WUHU21623XXSP,2013-01-12 11:16:00,
2013-01-12 05:21:00,33.8,30.8,29.19,West,267,3.1,8.9,89,0.00,,,0.00,WUHU21623XXSP,2013-01-12 11:21:00,
2013-01-12 05:26:00,33.1,30.2,29.19,WSW,247,4.7,6.5,89,0.00,,,0.00,WUHU21623XXSP,2013-01-12 11:26:00,
2013-01-12 05:31:00,32.5,29.7,29.20,WNW,302,2.7,8.1,89,0.00,,,0.00,WUHU21623XXSP,2013-01-12 11:31:00,
2013-01-12 05:36:00,31.3,28.2,29.21,WNW,292,6.3,12.5,88,0.00,,,0.00,WUHU21623XXSP,2013-01-12 11:36:00,
2013-01-12 05:41:00,30.4,27.3,29.21,WNW,292,8.7,13.6,88,0.00,,,0.00,WUHU21623XXSP,2013-01-12 11:41:00,
2013-01-12 05:46:00,29.3,26.2,29.22,WNW,292,7.2,13.6,88,0.00,,,0.00,WUHU21623XXSP,2013-01-12 11:46:00,
2013-01-12 05:51:00,28.4,25.0,29.22,WNW,292,5.5,11.9,87,0.00,,,0.00,WUHU21623XXSP,2013-01-12 11:51:00,
2013-01-12 05:56:00,28.0,24.7,29.23,WNW,292,5.1,11.9,87,0.00,,,0.00,WUHU21623XXSP,2013-01-12 11:56:00,
2013-01-12 06:01:00,27.3,23.6,29.24,WNW,292,4.7,9.8,86,0.00,,,0.00,WUHU21623XXSP,2013-01-12 12:01:00,
2013-01-12 06:06:00,26.4,22.9,29.24,WNW,292,6.3,11.4,86,0.00,,,0.00,WUHU21623XXSP,2013-01-12 12:06:00,
2013-01-12 06:11:00,25.9,22.2,29.25,WNW,292,3.4,12.3,86,0.00,,,0.00,WUHU21623XXSP,2013-01-12 12:11:00,
2013-01-12 06:16:00,25.5,21.9,29.25,WNW,292,6.1,12.3,86,0.00,,,0.00,WUHU21623XXSP,2013-01-12 12:16:00,
2013-01-12 06:21:00,25.5,21.9,29.26,WNW,292,3.9,10.7,86,0.00,,,0.00,WUHU21623XXSP,2013-01-12 12:21:00,
2013-01-12 06:26:00,24.6,20.8,29.26,WNW,292,8.7,11.0,85,0.00,,,0.00,WUHU21623XXSP,2013-01-12 12:26:00,
2013-01-12 06:31:00,24.1,20.2,29.27,WNW,292,3.9,11.0,85,0.00,,,0.00,WUHU21623XXSP,2013-01-12 12:31:00,
2013-01-12 06:36:00,23.5,19.7,29.27,WNW,292,6.5,12.1,85,0.00,,,0.00,WUHU21623XXSP,2013-01-12 12:36:00,
2013-01-12 06:41:00,23.4,19.5,29.28,WNW,292,4.9,12.1,85,0.00,,,0.00,WUHU21623XXSP,2013-01-12 12:41:00,
2013-01-12 06:46:00,23.0,19.1,29.29,WNW,292,5.1,11.9,85,0.00,,,0.00,WUHU21623XXSP,2013-01-12 12:46:00,
2013-01-12 06:51:00,22.8,18.9,29.30,WNW,292,8.2,15.9,85,0.00,,,0.00,WUHU21623XXSP,2013-01-12 12:51:00,
2013-01-12 06:56:00,22.1,18.0,29.30,WNW,292,6.5,15.9,84,0.00,,,0.00,WUHU21623XXSP,2013-01-12 12:56:00,
2013-01-12 07:01:00,21.4,17.2,29.31,WNW,292,6.0,12.1,84,0.00,,,0.00,WUHU21623XXSP,2013-01-12 13:01:00,
2013-01-12 07:06:00,21.0,16.9,29.31,WNW,292,6.3,12.1,84,0.00,,,0.00,WUHU21623XXSP,2013-01-12 13:06:00,
2013-01-12 07:11:00,20.8,16.7,29.32,WNW,292,4.9,8.5,84,0.00,,,0.00,WUHU21623XXSP,2013-01-12 13:11:00,
2013-01-12 07:16:00,19.9,15.5,29.33,WNW,292,8.3,11.2,83,0.00,,,0.00,WUHU21623XXSP,2013-01-12 13:16:00,
2013-01-12 07:21:00,19.6,15.2,29.33,WNW,292,6.4,12.8,83,0.00,,,0.00,WUHU21623XXSP,2013-01-12 13:21:00,
2013-01-12 07:26:00,19.2,14.8,29.34,WNW,292,6.9,13.6,83,0.00,,,0.00,WUHU21623XXSP,2013-01-12 13:26:00,
2013-01-12 07:31:00,19.0,14.6,29.34,WNW,292,5.6,13.6,83,0.00,,,0.00,WUHU21623XXSP,2013-01-12 13:31:00,
2013-01-12 07:36:00,18.7,14.3,29.34,WNW,292,4.6,10.7,83,0.00,,,0.00,WUHU21623XXSP,2013-01-12 13:36:00,
2013-01-12 07:41:00,18.5,14.1,29.35,WNW,292,4.7,11.0,83,0.00,,,0.00,WUHU21623XXSP,2013-01-12 13:41:00,
2013-01-12 07:46:00,18.5,14.4,29.35,WNW,292,7.2,11.9,84,0.00,,,0.00,WUHU21623XXSP,2013-01-12 13:46:00,
2013-01-12 07:51:00,18.5,14.4,29.36,WNW,292,10.3,11.9,84,0.00,,,0.00,WUHU21623XXSP,2013-01-12 13:51:00,
2013-01-12 07:56:00,17.8,13.4,29.36,WNW,292,4.9,12.1,83,0.00,,,0.00,WUHU21623XXSP,2013-01-12 13:56:00,
2013-01-12 08:01:00,17.8,13.6,29.37,WNW,292,6.9,12.1,84,0.00,,,0.00,WUHU21623XXSP,2013-01-12 14:01:00,
2013-01-12 08:06:00,17.2,12.8,29.38,WNW,292,3.8,6.9,83,0.00,,,0.00,WUHU21623XXSP,2013-01-12 14:06:00,
2013-01-12 08:11:00,16.7,12.3,29.39,WNW,292,4.1,9.2,83,0.00,,,0.00,WUHU21623XXSP,2013-01-12 14:11:00,
2013-01-12 08:16:00,16.3,11.8,29.40,WNW,292,7.6,9.2,82,0.00,,,0.00,WUHU21623XXSP,2013-01-12 14:16:00,
2013-01-12 08:21:00,16.3,12.0,29.40,WNW,292,4.5,8.3,83,0.00,,,0.00,WUHU21623XXSP,2013-01-12 14:21:00,
2013-01-12 08:26:00,16.2,11.6,29.41,WNW,292,5.4,9.6,82,0.00,,,0.00,WUHU21623XXSP,2013-01-12 14:26:00,
2013-01-12 08:31:00,16.0,11.4,29.41,WNW,292,11.4,11.4,82,0.00,,,0.00,WUHU21623XXSP,2013-01-12 14:31:00,
2013-01-12 08:36:00,15.6,10.8,29.42,WNW,292,5.9,11.4,81,0.00,,,0.00,WUHU21623XXSP,2013-01-12 14:36:00,
2013-01-12 08:41:00,16.0,11.4,29.42,WNW,292,4.0,8.7,82,0.00,,,0.00,WUHU21623XXSP,2013-01-12 14:41:00,
2013-01-12 08:46:00,15.6,10.8,29.43,WNW,292,6.7,8.7,81,0.00,,,0.00,WUHU21623XXSP,2013-01-12 14:46:00,
2013-01-12 08:51:00,15.4,10.4,29.43,WNW,292,6.0,11.2,80,0.00,,,0.00,WUHU21623XXSP,2013-01-12 14:51:00,
2013-01-12 08:56:00,15.1,9.7,29.44,WNW,292,4.6,11.2,79,0.00,,,0.00,WUHU21623XXSP,2013-01-12 14:56:00,
2013-01-12 09:01:00,15.1,10.0,29.44,WNW,292,12.3,12.3,80,0.00,,,0.00,WUHU21623XXSP,2013-01-12 15:01:00,
2013-01-12 09:06:00,14.5,9.2,29.44,WNW,292,5.4,15.9,79,0.00,,,0.00,WUHU21623XXSP,2013-01-12 15:06:00,
2013-01-12 09:11:00,14.5,9.5,29.45,WNW,292,5.8,15.9,80,0.00,,,0.00,WUHU21623XXSP,2013-01-12 15:11:00,
2013-01-12 09:16:00,14.7,9.9,29.45,WNW,292,5.8,11.6,81,0.00,,,0.00,WUHU21623XXSP,2013-01-12 15:16:00,
2013-01-12 09:21:00,14.4,9.0,29.45,WNW,292,7.5,13.4,79,0.00,,,0.00,WUHU21623XXSP,2013-01-12 15:21:00,
2013-01-12 09:26:00,14.2,8.8,29.45,WNW,292,7.0,13.4,79,0.00,,,0.00,WUHU21623XXSP,2013-01-12 15:26:00,
2013-01-12 09:33:00,14.2,8.8,29.46,WNW,292,4.5,10.7,79,0.00,,,0.00,WUHU21623XXSP,2013-01-12 15:33:00,
2013-01-12 09:38:00,14.2,8.5,29.46,WNW,292,5.7,11.6,78,0.00,,,0.00,WUHU21623XXSP,2013-01-12 15:38:00,
2013-01-12 09:43:00,14.2,9.1,29.46,WNW,292,8.1,11.6,80,0.00,,,0.00,WUHU21623XXSP,2013-01-12 15:43:00,
2013-01-12 09:48:00,13.8,8.8,29.47,WNW,292,4.5,10.1,80,0.00,,,0.00,WUHU21623XXSP,2013-01-12 15:48:00,
2013-01-12 09:53:00,13.6,8.6,29.47,WNW,292,4.5,9.8,80,0.00,,,0.00,WUHU21623XXSP,2013-01-12 15:53:00,
2013-01-12 09:58:00,13.3,8.2,29.48,WNW,292,7.4,10.1,80,0.00,,,0.00,WUHU21623XXSP,2013-01-12 15:58:00,
2013-01-12 10:03:00,12.9,7.0,29.49,WNW,292,9.4,11.9,77,0.00,,,0.00,WUHU21623XXSP,2013-01-12 16:03:00,
2013-01-12 10:08:00,12.7,6.8,29.49,WNW,292,6.0,13.6,77,0.00,,,0.00,WUHU21623XXSP,2013-01-12 16:08:00,
2013-01-12 10:13:00,13.1,7.2,29.49,WNW,292,8.3,13.6,77,0.00,,,0.00,WUHU21623XXSP,2013-01-12 16:13:00,
2013-01-12 10:18:00,13.1,6.9,29.50,WNW,292,17.7,17.7,76,0.00,,,0.00,WUHU21623XXSP,2013-01-12 16:18:00,
2013-01-12 10:23:00,13.3,7.7,29.50,WNW,292,10.1,17.7,78,0.00,,,0.00,WUHU21623XXSP,2013-01-12 16:23:00,
2013-01-12 10:28:00,13.6,7.7,29.50,WNW,292,3.9,14.8,77,0.00,,,0.00,WUHU21623XXSP,2013-01-12 16:28:00,
2013-01-12 10:33:00,13.8,8.2,29.51,WNW,292,3.2,10.1,78,0.00,,,0.00,WUHU21623XXSP,2013-01-12 16:33:00,
2013-01-12 10:38:00,13.6,7.4,29.51,WNW,292,5.2,7.6,76,0.00,,,0.00,WUHU21623XXSP,2013-01-12 16:38:00,
2013-01-12 10:43:00,13.1,7.2,29.51,WNW,292,4.2,7.8,77,0.00,,,0.00,WUHU21623XXSP,2013-01-12 16:43:00,
2013-01-12 10:48:00,12.7,7.4,29.52,WNW,292,8.3,8.3,79,0.00,,,0.00,WUHU21623XXSP,2013-01-12 16:48:00,
2013-01-12 10:53:00,12.7,7.7,29.51,WNW,292,6.5,12.1,80,0.00,,,0.00,WUHU21623XXSP,2013-01-12 16:53:00,
2013-01-12 10:58:00,12.6,7.2,29.52,WNW,292,4.3,12.1,79,0.00,,,0.00,WUHU21623XXSP,2013-01-12 16:58:00,
2013-01-12 11:03:00,13.1,7.5,29.52,WNW,292,4.3,11.6,78,0.00,,,0.00,WUHU21623XXSP,2013-01-12 17:03:00,
2013-01-12 11:08:00,12.6,6.1,29.52,WNW,292,5.1,11.6,75,0.00,,,0.00,WUHU21623XXSP,2013-01-12 17:08:00,
2013-01-12 11:13:00,12.7,6.8,29.52,WNW,292,3.6,11.4,77,0.00,,,0.00,WUHU21623XXSP,2013-01-12 17:13:00,
2013-01-12 11:18:00,12.2,6.0,29.53,WNW,292,6.5,12.3,76,0.00,,,0.00,WUHU21623XXSP,2013-01-12 17:18:00,
2013-01-12 11:23:00,12.0,5.8,29.53,WNW,292,6.0,16.8,76,0.00,,,0.00,WUHU21623XXSP,2013-01-12 17:23:00,
2013-01-12 11:28:00,12.2,5.7,29.53,WNW,292,5.5,16.8,75,0.00,,,0.00,WUHU21623XXSP,2013-01-12 17:28:00,
2013-01-12 11:33:00,11.8,5.4,29.53,WNW,292,6.7,14.8,75,0.00,,,0.00,WUHU21623XXSP,2013-01-12 17:33:00,
2013-01-12 11:38:00,12.0,5.8,29.53,WNW,292,3.9,14.8,76,0.00,,,0.00,WUHU21623XXSP,2013-01-12 17:38:00,
2013-01-12 11:43:00,12.0,5.8,29.54,WNW,292,8.5,12.8,76,0.00,,,0.00,WUHU21623XXSP,2013-01-12 17:43:00,
2013-01-12 11:48:00,12.0,5.8,29.54,WNW,292,9.8,12.8,76,0.00,,,0.00,WUHU21623XXSP,2013-01-12 17:48:00,
2013-01-12 11:53:00,12.2,5.7,29.55,WNW,292,3.2,9.8,75,0.00,,,0.00,WUHU21623XXSP,2013-01-12 17:53:00,
2013-01-12 11:58:00,12.6,6.1,29.55,WNW,292,3.0,8.3,75,0.00,,,0.00,WUHU21623XXSP,2013-01-12 17:58:00,
2013-01-12 12:03:00,12.2,5.4,29.55,WNW,292,4.5,8.3,74,0.00,,,0.00,WUHU21623XXSP,2013-01-12 18:03:00,
2013-01-12 12:08:00,12.0,5.5,29.55,WNW,292,7.6,7.6,75,0.00,,,0.00,WUHU21623XXSP,2013-01-12 18:08:00,
2013-01-12 12:13:00,11.8,5.4,29.55,WNW,292,6.4,9.6,75,0.00,,,0.00,WUHU21623XXSP,2013-01-12 18:13:00,
2013-01-12 12:18:00,11.5,5.3,29.56,WNW,292,4.7,9.6,76,0.00,,,0.00,WUHU21623XXSP,2013-01-12 18:18:00,
2013-01-12 12:23:00,11.5,5.3,29.57,WNW,292,6.2,17.2,76,0.00,,,0.00,WUHU21623XXSP,2013-01-12 18:23:00,
2013-01-12 12:28:00,11.1,5.2,29.57,WNW,292,5.6,17.2,77,0.00,,,0.00,WUHU21623XXSP,2013-01-12 18:28:00,
2013-01-12 12:33:00,11.5,5.3,29.57,WNW,292,4.6,11.2,76,0.00,,,0.00,WUHU21623XXSP,2013-01-12 18:33:00,
2013-01-12 12:38:00,12.0,5.8,29.57,WNW,292,5.8,8.1,76,0.00,,,0.00,WUHU21623XXSP,2013-01-12 18:38:00,
2013-01-12 12:43:00,12.4,5.6,29.58,WNW,292,5.6,8.7,74,0.00,,,0.00,WUHU21623XXSP,2013-01-12 18:43:00,
2013-01-12 12:48:00,11.8,4.5,29.58,WNW,292,5.4,8.7,72,0.00,,,0.00,WUHU21623XXSP,2013-01-12 18:48:00,
2013-01-12 12:53:00,11.7,4.3,29.58,WNW,292,4.9,8.3,72,0.00,,,0.00,WUHU21623XXSP,2013-01-12 18:53:00,
2013-01-12 12:58:00,11.7,4.3,29.59,WNW,292,4.9,9.8,72,0.00,,,0.00,WUHU21623XXSP,2013-01-12 18:58:00,
2013-01-12 13:03:00,11.3,4.8,29.60,WNW,292,4.9,9.8,75,0.00,,,0.00,WUHU21623XXSP,2013-01-12 19:03:00,
2013-01-12 13:08:00,11.5,5.3,29.60,WNW,292,11.2,11.2,76,0.00,,,0.00,WUHU21623XXSP,2013-01-12 19:08:00,
2013-01-12 13:13:00,11.1,5.2,29.60,WNW,292,6.9,15.2,77,0.00,,,0.00,WUHU21623XXSP,2013-01-12 19:13:00,
2013-01-12 13:18:00,10.9,5.0,29.60,WNW,292,7.2,15.2,77,0.00,,,0.00,WUHU21623XXSP,2013-01-12 19:18:00,
2013-01-12 13:23:00,11.1,5.2,29.61,WNW,292,3.1,10.5,77,0.00,,,0.00,WUHU21623XXSP,2013-01-12 19:23:00,
2013-01-12 13:28:00,11.1,4.4,29.60,WNW,292,6.3,11.6,74,0.00,,,0.00,WUHU21623XXSP,2013-01-12 19:28:00,
2013-01-12 13:33:00,11.1,4.4,29.61,WNW,292,5.1,11.6,74,0.00,,,0.00,WUHU21623XXSP,2013-01-12 19:33:00,
2013-01-12 13:38:00,11.5,4.4,29.62,WNW,292,5.1,11.2,73,0.00,,,0.00,WUHU21623XXSP,2013-01-12 19:38:00,
2013-01-12 13:43:00,11.7,4.9,29.63,WNW,292,2.3,8.9,74,0.00,,,0.00,WUHU21623XXSP,2013-01-12 19:43:00,
2013-01-12 13:48:00,11.5,4.4,29.63,WNW,292,6.3,10.3,73,0.00,,,0.00,WUHU21623XXSP,2013-01-12 19:48:00,
2013-01-12 13:53:00,11.3,4.8,29.63,WNW,292,4.3,10.3,75,0.00,,,0.00,WUHU21623XXSP,2013-01-12 19:53:00,
2013-01-12 13:58:00,11.1,5.2,29.63,WNW,292,3.5,7.8,77,0.00,,,0.00,WUHU21623XXSP,2013-01-12 19:58:00,
2013-01-12 14:03:00,11.1,4.9,29.64,WNW,292,4.9,7.2,76,0.00,,,0.00,WUHU21623XXSP,2013-01-12 20:03:00,
2013-01-12 14:08:00,11.1,4.1,29.64,WNW,292,2.5,12.5,73,0.00,,,0.00,WUHU21623XXSP,2013-01-12 20:08:00,
2013-01-12 14:13:00,11.1,4.4,29.65,WNW,292,5.8,12.5,74,0.00,,,0.00,WUHU21623XXSP,2013-01-12 20:13:00,
2013-01-12 14:18:00,11.3,4.2,29.65,WNW,292,3.5,10.3,73,0.00,,,0.00,WUHU21623XXSP,2013-01-12 20:18:00,
2013-01-12 14:23:00,11.1,4.1,29.65,WNW,292,2.7,8.7,73,0.00,,,0.00,WUHU21623XXSP,2013-01-12 20:23:00,
2013-01-12 14:28:00,11.1,4.1,29.66,WNW,292,5.1,9.4,73,0.00,,,0.00,WUHU21623XXSP,2013-01-12 20:28:00,
2013-01-12 14:33:00,11.5,5.0,29.66,WNW,292,4.5,9.4,75,0.00,,,0.00,WUHU21623XXSP,2013-01-12 20:33:00,
2013-01-12 14:38:00,11.3,4.5,29.66,WNW,292,5.8,8.3,74,0.00,,,0.00,WUHU21623XXSP,2013-01-12 20:38:00,
2013-01-12 14:43:00,10.8,4.3,29.66,WNW,292,6.0,8.3,75,0.00,,,0.00,WUHU21623XXSP,2013-01-12 20:43:00,
2013-01-12 14:48:00,10.9,4.5,29.67,WNW,292,3.6,6.5,75,0.00,,,0.00,WUHU21623XXSP,2013-01-12 20:48:00,
2013-01-12 14:53:00,10.6,4.1,29.67,WNW,292,5.8,13.4,75,0.00,,,0.00,WUHU21623XXSP,2013-01-12 20:53:00,
2013-01-12 14:58:00,10.2,3.5,29.67,WNW,292,6.3,13.4,74,0.00,,,0.00,WUHU21623XXSP,2013-01-12 20:58:00,
2013-01-12 15:03:00,10.4,3.6,29.67,WNW,292,4.7,11.6,74,0.00,,,0.00,WUHU21623XXSP,2013-01-12 21:03:00,
2013-01-12 15:08:00,10.2,3.5,29.68,WNW,292,6.9,13.0,74,0.00,,,0.00,WUHU21623XXSP,2013-01-12 21:08:00,
2013-01-12 15:13:00,10.2,3.5,29.68,WNW,292,4.5,13.0,74,0.00,,,0.00,WUHU21623XXSP,2013-01-12 21:13:00,
2013-01-12 15:18:00,10.2,3.5,29.68,WNW,292,5.5,12.5,74,0.00,,,0.00,WUHU21623XXSP,2013-01-12 21:18:00,
2013-01-12 15:23:00,10.2,3.5,29.68,WNW,292,7.8,12.5,74,0.00,,,0.00,WUHU21623XXSP,2013-01-12 21:23:00,
2013-01-12 15:28:00,10.2,3.8,29.69,WNW,292,6.7,11.2,75,0.00,,,0.00,WUHU21623XXSP,2013-01-12 21:28:00,
2013-01-12 15:33:00,10.2,3.8,29.69,WNW,292,6.6,10.3,75,0.00,,,0.00,WUHU21623XXSP,2013-01-12 21:33:00,
2013-01-12 15:38:00,10.0,3.3,29.69,WNW,292,8.1,11.6,74,0.00,,,0.00,WUHU21623XXSP,2013-01-12 21:38:00,
2013-01-12 15:43:00,10.2,3.8,29.70,WNW,292,6.7,11.6,75,0.00,,,0.00,WUHU21623XXSP,2013-01-12 21:43:00,
2013-01-12 15:48:00,10.2,4.0,29.70,WNW,292,2.2,8.3,76,0.00,,,0.00,WUHU21623XXSP,2013-01-12 21:48:00,
2013-01-12 15:53:00,10.2,3.8,29.70,WNW,292,3.8,10.5,75,0.00,,,0.00,WUHU21623XXSP,2013-01-12 21:53:00,
2013-01-12 15:58:00,10.2,4.0,29.71,WNW,292,3.9,10.5,76,0.00,,,0.00,WUHU21623XXSP,2013-01-12 21:58:00,
2013-01-12 16:03:00,10.2,3.8,29.71,WNW,292,1.6,7.4,75,0.00,,,0.00,WUHU21623XXSP,2013-01-12 22:03:00,
2013-01-12 16:08:00,10.2,3.8,29.71,WNW,292,5.4,8.3,75,0.00,,,0.00,WUHU21623XXSP,2013-01-12 22:08:00,
2013-01-12 16:13:00,10.0,3.3,29.71,WNW,292,8.3,12.3,74,0.00,,,0.00,WUHU21623XXSP,2013-01-12 22:13:00,
2013-01-12 16:18:00,9.7,2.7,29.71,WNW,292,5.2,15.4,73,0.00,,,0.00,WUHU21623XXSP,2013-01-12 22:18:00,
2013-01-12 16:23:00,9.7,3.0,29.71,WNW,292,8.1,15.4,74,0.00,,,0.00,WUHU21623XXSP,2013-01-12 22:23:00,
2013-01-12 16:28:00,9.7,3.3,29.72,WNW,292,3.8,13.0,75,0.00,,,0.00,WUHU21623XXSP,2013-01-12 22:28:00,
2013-01-12 16:33:00,9.7,3.6,29.72,WNW,292,6.1,13.0,76,0.00,,,0.00,WUHU21623XXSP,2013-01-12 22:33:00,
2013-01-12 16:38:00,9.7,3.3,29.72,WNW,292,8.9,12.8,75,0.00,,,0.00,WUHU21623XXSP,2013-01-12 22:38:00,
2013-01-12 16:43:00,9.5,2.5,29.72,WNW,292,7.2,12.3,73,0.00,,,0.00,WUHU21623XXSP,2013-01-12 22:43:00,
2013-01-12 16:48:00,9.5,2.8,29.73,WNW,292,5.8,9.4,74,0.00,,,0.00,WUHU21623XXSP,2013-01-12 22:48:00,
2013-01-12 16:53:00,9.3,2.9,29.72,WNW,292,4.5,9.2,75,0.00,,,0.00,WUHU21623XXSP,2013-01-12 22:53:00,
2013-01-12 16:58:00,9.5,3.4,29.73,WNW,292,3.8,9.4,76,0.00,,,0.00,WUHU21623XXSP,2013-01-12 22:58:00,
2013-01-12 17:03:00,9.5,3.4,29.73,WNW,292,5.0,9.4,76,0.00,,,0.00,WUHU21623XXSP,2013-01-12 23:03:00,
2013-01-12 17:08:00,9.1,3.1,29.73,WNW,292,6.0,10.7,76,0.00,,,0.00,WUHU21623XXSP,2013-01-12 23:08:00,
2013-01-12 17:13:00,9.1,3.1,29.73,WNW,292,5.8,10.7,76,0.00,,,0.00,WUHU21623XXSP,2013-01-12 23:13:00,
2013-01-12 17:18:00,9.3,3.2,29.74,WNW,292,4.7,9.2,76,0.00,,,0.00,WUHU21623XXSP,2013-01-12 23:18:00,
2013-01-12 17:23:00,9.1,2.8,29.74,WNW,292,6.9,10.7,75,0.00,,,0.00,WUHU21623XXSP,2013-01-12 23:23:00,
2013-01-12 17:28:00,9.1,2.8,29.74,WNW,292,7.4,10.7,75,0.00,,,0.00,WUHU21623XXSP,2013-01-12 23:28:00,
2013-01-12 17:33:00,9.1,3.1,29.74,WNW,292,4.7,10.5,76,0.00,,,0.00,WUHU21623XXSP,2013-01-12 23:33:00,
2013-01-12 17:38:00,9.1,3.1,29.74,WNW,292,5.8,9.4,76,0.00,,,0.00,WUHU21623XXSP,2013-01-12 23:38:00,
2013-01-12 17:43:00,9.0,2.9,29.74,WNW,292,8.3,9.4,76,0.00,,,0.00,WUHU21623XXSP,2013-01-12 23:43:00,
2013-01-12 17:48:00,8.8,2.8,29.74,WNW,292,6.0,10.7,76,0.00,,,0.00,WUHU21623XXSP,2013-01-12 23:48:00,
2013-01-12 17:53:00,8.8,2.8,29.74,WNW,292,6.7,11.6,76,0.00,,,0.00,WUHU21623XXSP,2013-01-12 23:53:00,
2013-01-12 17:58:00,8.8,2.8,29.74,WNW,292,5.1,11.6,76,0.00,,,0.00,WUHU21623XXSP,2013-01-12 23:58:00,
2013-01-12 18:03:00,8.6,2.9,29.75,WNW,292,4.8,11.9,77,0.00,,,0.00,WUHU21623XXSP,2013-01-13 00:03:00,
2013-01-12 18:08:00,8.4,2.7,29.75,WNW,292,6.6,11.9,77,0.00,,,0.00,WUHU21623XXSP,2013-01-13 00:08:00,
2013-01-12 18:13:00,8.2,2.8,29.76,WNW,292,8.3,13.0,78,0.00,,,0.00,WUHU21623XXSP,2013-01-13 00:13:00,
2013-01-12 18:18:00,8.4,2.7,29.76,WNW,292,6.7,13.0,77,0.00,,,0.00,WUHU21623XXSP,2013-01-13 00:18:00,
2013-01-12 18:23:00,8.2,2.5,29.77,WNW,292,7.2,11.4,77,0.00,,,0.00,WUHU21623XXSP,2013-01-13 00:23:00,
2013-01-12 18:28:00,8.2,2.2,29.77,WNW,292,6.0,11.4,76,0.00,,,0.00,WUHU21623XXSP,2013-01-13 00:28:00,
2013-01-12 18:33:00,8.4,2.4,29.77,WNW,292,6.5,10.5,76,0.00,,,0.00,WUHU21623XXSP,2013-01-13 00:33:00,
2013-01-12 18:38:00,8.2,2.5,29.78,WNW,292,2.9,7.4,77,0.00,,,0.00,WUHU21623XXSP,2013-01-13 00:38:00,
2013-01-12 18:43:00,8.1,2.3,29.78,WNW,292,3.8,7.4,77,0.00,,,0.00,WUHU21623XXSP,2013-01-13 00:43:00,
2013-01-12 18:48:00,7.9,2.4,29.78,WNW,292,7.8,8.5,78,0.00,,,0.00,WUHU21623XXSP,2013-01-13 00:48:00,
2013-01-12 18:53:00,8.4,3.0,29.78,WNW,292,4.4,8.5,78,0.00,,,0.00,WUHU21623XXSP,2013-01-13 00:53:00,
2013-01-12 18:58:00,8.2,2.8,29.78,WNW,292,4.0,8.9,78,0.00,,,0.00,WUHU21623XXSP,2013-01-13 00:58:00,
2013-01-12 19:03:00,8.2,2.8,29.79,WNW,292,8.9,10.1,78,0.00,,,0.00,WUHU21623XXSP,2013-01-13 01:03:00,
2013-01-12 19:08:00,8.1,2.6,29.79,WNW,292,1.4,10.1,78,0.00,,,0.00,WUHU21623XXSP,2013-01-13 01:08:00,
2013-01-12 19:13:00,7.9,2.2,29.79,WNW,292,10.3,12.3,77,0.00,,,0.00,WUHU21623XXSP,2013-01-13 01:13:00,
2013-01-12 19:18:00,8.1,2.0,29.79,WNW,292,7.6,12.3,76,0.00,,,0.00,WUHU21623XXSP,2013-01-13 01:18:00,
2013-01-12 19:23:00,7.9,2.2,29.78,WNW,292,8.9,10.7,77,0.00,,,0.00,WUHU21623XXSP,2013-01-13 01:23:00,
2013-01-12 19:28:00,8.1,2.3,29.79,WNW,292,5.1,10.5,77,0.00,,,0.00,WUHU21623XXSP,2013-01-13 01:28:00,
2013-01-12 19:33:00,8.1,2.3,29.79,WNW,292,3.8,10.5,77,0.00,,,0.00,WUHU21623XXSP,2013-01-13 01:33:00,
2013-01-12 19:38:00,7.9,2.2,29.78,WNW,292,8.5,9.6,77,0.00,,,0.00,WUHU21623XXSP,2013-01-13 01:38:00,
2013-01-12 19:43:00,7.7,2.0,29.78,WNW,292,4.3,9.6,77,0.00,,,0.00,WUHU21623XXSP,2013-01-13 01:43:00,
2013-01-12 19:48:00,7.9,2.2,29.78,WNW,292,4.7,9.6,77,0.00,,,0.00,WUHU21623XXSP,2013-01-13 01:48:00,
2013-01-12 19:53:00,7.5,1.2,29.78,WNW,292,7.5,10.7,75,0.00,,,0.00,WUHU21623XXSP,2013-01-13 01:53:00,
2013-01-12 19:58:00,7.3,1.0,29.77,WNW,292,7.6,12.5,75,0.00,,,0.00,WUHU21623XXSP,2013-01-13 01:58:00,
2013-01-12 20:03:00,7.3,1.3,29.78,WNW,292,5.4,12.5,76,0.00,,,0.00,WUHU21623XXSP,2013-01-13 02:03:00,
2013-01-12 20:08:00,7.3,1.3,29.78,WNW,292,6.2,8.1,76,0.00,,,0.00,WUHU21623XXSP,2013-01-13 02:08:00,
2013-01-12 20:13:00,7.2,1.1,29.77,WNW,292,6.4,11.2,76,0.00,,,0.00,WUHU21623XXSP,2013-01-13 02:13:00,
2013-01-12 20:18:00,7.2,1.1,29.78,WNW,292,4.9,11.2,76,0.00,,,0.00,WUHU21623XXSP,2013-01-13 02:18:00,
2013-01-12 20:23:00,7.0,1.3,29.78,WNW,292,6.0,11.6,77,0.00,,,0.00,WUHU21623XXSP,2013-01-13 02:23:00,
2013-01-12 20:28:00,7.0,1.3,29.78,WNW,292,7.4,11.6,77,0.00,,,0.00,WUHU21623XXSP,2013-01-13 02:28:00,
2013-01-12 20:33:00,7.2,1.4,29.78,WNW,292,5.7,11.9,77,0.00,,,0.00,WUHU21623XXSP,2013-01-13 02:33:00,
2013-01-12 20:38:00,7.0,1.3,29.79,WNW,292,6.4,11.9,77,0.00,,,0.00,WUHU21623XXSP,2013-01-13 02:38:00,
2013-01-12 20:43:00,7.0,1.5,29.79,WNW,292,4.9,11.4,78,0.00,,,0.00,WUHU21623XXSP,2013-01-13 02:43:00,
2013-01-12 20:48:00,7.0,1.5,29.80,WNW,292,1.5,6.9,78,0.00,,,0.00,WUHU21623XXSP,2013-01-13 02:48:00,
2013-01-12 20:53:00,6.6,0.9,29.80,WNW,292,6.5,8.9,77,0.00,,,0.00,WUHU21623XXSP,2013-01-13 02:53:00,
2013-01-12 20:58:00,6.4,0.1,29.81,WNW,292,4.5,13.6,75,0.00,,,0.00,WUHU21623XXSP,2013-01-13 02:58:00,
2013-01-12 21:03:00,6.4,0.1,29.80,WNW,292,11.9,13.6,75,0.00,,,0.00,WUHU21623XXSP,2013-01-13 03:03:00,
2013-01-12 21:08:00,6.1,-0.2,29.81,WNW,292,6.3,11.9,75,0.00,,,0.00,WUHU21623XXSP,2013-01-13 03:08:00,
2013-01-12 21:13:00,6.1,-0.2,29.81,WNW,292,5.6,10.3,75,0.00,,,0.00,WUHU21623XXSP,2013-01-13 03:13:00,
2013-01-12 21:18:00,6.1,-0.2,29.82,WNW,292,4.0,10.3,75,0.00,,,0.00,WUHU21623XXSP,2013-01-13 03:18:00,
2013-01-12 21:23:00,5.9,-0.1,29.81,WNW,292,8.7,8.7,76,0.00,,,0.00,WUHU21623XXSP,2013-01-13 03:23:00,
2013-01-12 21:28:00,5.9,-0.1,29.82,WNW,292,4.1,8.7,76,0.00,,,0.00,WUHU21623XXSP,2013-01-13 03:28:00,
2013-01-12 21:33:00,5.9,-0.1,29.83,WNW,292,3.6,6.9,76,0.00,,,0.00,WUHU21623XXSP,2013-01-13 03:33:00,
2013-01-12 21:38:00,6.1,0.4,29.84,WNW,292,0.9,5.4,77,0.00,,,0.00,WUHU21623XXSP,2013-01-13 03:38:00,
2013-01-12 21:43:00,6.1,0.6,29.85,WNW,292,1.2,4.0,78,0.00,,,0.00,WUHU21623XXSP,2013-01-13 03:43:00,
2013-01-12 21:48:00,6.1,0.4,29.85,WNW,292,5.8,6.9,77,0.00,,,0.00,WUHU21623XXSP,2013-01-13 03:48:00,
2013-01-12 21:53:00,6.1,0.6,29.85,WNW,292,0.6,6.9,78,0.00,,,0.00,WUHU21623XXSP,2013-01-13 03:53:00,
2013-01-12 21:58:00,5.9,0.5,29.84,WNW,292,6.7,6.7,78,0.00,,,0.00,WUHU21623XXSP,2013-01-13 03:58:00,
2013-01-12 22:03:00,5.7,0.3,29.84,WNW,292,8.5,8.5,78,0.00,,,0.00,WUHU21623XXSP,2013-01-13 04:03:00,
2013-01-12 22:08:00,5.5,-0.2,29.84,WNW,292,6.6,13.6,77,0.00,,,0.00,WUHU21623XXSP,2013-01-13 04:08:00,
2013-01-12 22:13:00,5.2,-0.5,29.84,WNW,292,5.4,13.6,77,0.00,,,0.00,WUHU21623XXSP,2013-01-13 04:13:00,
2013-01-12 22:18:00,5.0,-0.7,29.84,WNW,292,5.1,11.4,77,0.00,,,0.00,WUHU21623XXSP,2013-01-13 04:18:00,
2013-01-12 22:23:00,4.8,-0.9,29.84,WNW,292,3.7,11.4,77,0.00,,,0.00,WUHU21623XXSP,2013-01-13 04:23:00,
2013-01-12 22:28:00,4.8,-0.9,29.85,WNW,292,6.0,11.0,77,0.00,,,0.00,WUHU21623XXSP,2013-01-13 04:28:00,
2013-01-12 22:33:00,4.6,-1.1,29.85,WNW,292,5.3,8.5,77,0.00,,,0.00,WUHU21623XXSP,2013-01-13 04:33:00,
2013-01-12 22:38:00,4.5,-1.3,29.86,WNW,292,6.3,11.9,77,0.00,,,0.00,WUHU21623XXSP,2013-01-13 04:38:00,
2013-01-12 22:43:00,4.1,-1.6,29.86,WNW,292,5.8,11.9,77,0.00,,,0.00,WUHU21623XXSP,2013-01-13 04:43:00,
2013-01-12 22:48:00,3.9,-1.5,29.86,WNW,292,2.2,7.6,78,0.00,,,0.00,WUHU21623XXSP,2013-01-13 04:48:00,
2013-01-12 22:53:00,3.9,-1.5,29.86,WNW,292,7.4,7.6,78,0.00,,,0.00,WUHU21623XXSP,2013-01-13 04:53:00,
2013-01-12 22:58:00,3.9,-1.2,29.86,WNW,292,3.4,8.7,79,0.00,,,0.00,WUHU21623XXSP,2013-01-13 04:58:00,
2013-01-12 23:00:00,3.9,-1.2,29.86,WNW,292,6.9,8.7,79,0.00,,,0.00,WUHU21623XXSP,2013-01-13 05:00:00,
2013-01-12 23:02:00,3.7,-1.7,29.86,WNW,292,5.6,8.7,78,0.00,,,0.00,WUHU21623XXSP,2013-01-13 05:02:00,
2013-01-12 23:03:00,3.7,-1.7,29.86,WNW,292,3.3,8.7,78,0.00,,,0.00,WUHU21623XXSP,2013-01-13 05:03:00,
2013-01-12 23:08:00,3.7,-1.4,29.86,WNW,292,3.8,7.6,79,0.00,,,0.00,WUHU21623XXSP,2013-01-13 05:08:00,
2013-01-12 23:13:00,3.7,-1.4,29.86,WNW,292,3.1,7.6,79,0.00,,,0.00,WUHU21623XXSP,2013-01-13 05:13:00,
2013-01-12 23:18:00,3.6,-1.9,29.87,WNW,292,5.4,7.4,78,0.00,,,0.00,WUHU21623XXSP,2013-01-13 05:18:00,
2013-01-12 23:23:00,3.7,-1.4,29.87,WNW,292,4.5,6.7,79,0.00,,,0.00,WUHU21623XXSP,2013-01-13 05:23:00,
2013-01-12 23:28:00,3.7,-1.4,29.87,WNW,292,5.4,7.6,79,0.00,,,0.00,WUHU21623XXSP,2013-01-13 05:28:00,
2013-01-12 23:33:00,3.7,-1.4,29.87,WNW,292,2.0,8.3,79,0.00,,,0.00,WUHU21623XXSP,2013-01-13 05:33:00,
2013-01-12 23:38:00,3.7,-1.4,29.87,WNW,292,6.9,9.2,79,0.00,,,0.00,WUHU21623XXSP,2013-01-13 05:38:00,
2013-01-12 23:43:00,3.7,-1.4,29.87,WNW,292,4.7,10.3,79,0.00,,,0.00,WUHU21623XXSP,2013-01-13 05:43:00,
2013-01-12 23:48:00,3.7,-1.4,29.86,WNW,292,8.3,13.6,79,0.00,,,0.00,WUHU21623XXSP,2013-01-13 05:48:00,
2013-01-12 23:53:00,3.6,-1.9,29.86,WNW,292,7.6,13.6,78,0.00,,,0.00,WUHU21623XXSP,2013-01-13 05:53:00,
2013-01-12 23:58:00,3.6,-1.9,29.86,WNW,292,5.7,11.9,78,0.00,,,0.00,WUHU21623XXSP,2013-01-13 05:58:00,